| time (UTC) | temp F | wind direction | speed MPH | gust MPH | rain 1hr in | rain 24hr in | rain mn in | humidity % | barometer mb |
| 20260905061651 | 64 | 124 | 0.0 | 0.0 | 0.00 | 0.00 | 0.06 | 64 | 1012.5 |
| 20260905061148 | 64 | 115 | 0.0 | 0.0 | 0.00 | 0.00 | 0.06 | 63 | 1012.6 |
| 20260905060649 | 64 | 118 | 0.0 | 0.0 | 0.00 | 0.00 | 0.06 | 63 | 1012.5 |
| 20260905060113 | 65 | 164 | 0.0 | 0.0 | 0.00 | 0.00 | 0.06 | 62 | 1012.6 |
| 20260905055025 | 65 | 166 | 0.0 | 0.0 | 0.00 | 0.00 | 0.06 | 61 | 1012.6 |
| 20260905053659 | 65 | 217 | 0.0 | 0.0 | 0.00 | 0.00 | 0.06 | 60 | 1012.6 |
| 20260905053655 | 65 | 164 | 0.0 | 0.0 | 0.00 | 0.00 | 0.06 | 61 | 1012.7 |
| 20260905052658 | 65 | 217 | 0.0 | 0.0 | 0.00 | 0.00 | 0.06 | 59 | 1012.6 |
| 20260905051143 | 66 | 236 | 0.0 | 0.0 | 0.00 | 0.00 | 0.06 | 56 | 1012.7 |
| 20260905051137 | 66 | 234 | 0.0 | 0.0 | 0.00 | 0.00 | 0.06 | 57 | 1012.7 |
| 20260905045845 | 67 | 236 | 0.0 | 0.0 | 0.00 | 0.00 | 0.06 | 54 | 1012.6 |
| 20260905044837 | 67 | 237 | 0.0 | 0.0 | 0.00 | 0.00 | 0.06 | 53 | 1012.7 |
| 20260905043411 | 68 | 240 | 3.0 | 2.0 | 0.00 | 0.00 | 0.06 | 54 | 1012.5 |
| 20260905042044 | 68 | 254 | 2.0 | 3.0 | 0.00 | 0.00 | 0.06 | 51 | 1012.3 |
| 20260905040933 | 69 | 237 | 3.0 | 1.0 | 0.00 | 0.00 | 0.06 | 45 | 1012.1 |
| 20260905035351 | 70 | 248 | 0.0 | 2.0 | 0.00 | 0.00 | 0.06 | 44 | 1012.1 |
| 20260905034852 | 70 | 248 | 0.0 | 2.0 | 0.00 | 0.00 | 0.06 | 43 | 1012.1 |
| 20260905034345 | 70 | 248 | 0.0 | 0.0 | 0.00 | 0.00 | 0.06 | 43 | 1012.0 |
| 20260905033829 | 70 | 248 | 0.0 | 3.0 | 0.00 | 0.00 | 0.06 | 44 | 1011.8 |
| 20260905033328 | 71 | 248 | 1.0 | 3.0 | 0.00 | 0.00 | 0.06 | 43 | 1011.7 |
| 20260905032829 | 71 | 244 | 2.0 | 0.0 | 0.00 | 0.00 | 0.06 | 42 | 1011.7 |
| 20260905031404 | 71 | 240 | 1.0 | 5.0 | 0.00 | 0.00 | 0.06 | 42 | 1011.7 |
| 20260905030858 | 71 | 244 | 1.0 | 3.0 | 0.00 | 0.00 | 0.06 | 43 | 1011.7 |
| 20260905030404 | 72 | 246 | 1.0 | 1.0 | 0.00 | 0.00 | 0.06 | 44 | 1011.5 |
| 20260905025217 | 72 | 225 | 2.0 | 5.0 | 0.00 | 0.00 | 0.06 | 43 | 1011.6 |
| 20260905024715 | 73 | 234 | 2.0 | 5.0 | 0.00 | 0.00 | 0.06 | 43 | 1011.6 |
| 20260905024220 | 73 | 246 | 2.0 | 2.0 | 0.00 | 0.00 | 0.06 | 43 | 1011.5 |
| 20260905023004 | 74 | 234 | 2.0 | 5.0 | 0.00 | 0.00 | 0.06 | 43 | 1011.4 |
| 20260905022456 | 74 | 238 | 2.0 | 5.0 | 0.00 | 0.00 | 0.06 | 43 | 1011.4 |
| 20260905022000 | 74 | 236 | 1.0 | 3.0 | 0.00 | 0.00 | 0.06 | 43 | 1011.3 |
| 20260905020833 | 75 | 244 | 2.0 | 5.0 | 0.00 | 0.00 | 0.06 | 42 | 1011.4 |
| 20260905020332 | 75 | 236 | 2.0 | 5.0 | 0.00 | 0.00 | 0.06 | 42 | 1011.4 |
| 20260905015831 | 76 | 243 | 2.0 | 4.0 | 0.00 | 0.00 | 0.06 | 42 | 1011.5 |
| 20260905015333 | 76 | 235 | 2.0 | 2.0 | 0.00 | 0.00 | 0.06 | 41 | 1011.5 |
| 20260905013813 | 77 | 242 | 0.0 | 0.0 | 0.00 | 0.00 | 0.06 | 40 | 1011.5 |
| 20260905013319 | 77 | 242 | 0.0 | 0.0 | 0.00 | 0.00 | 0.06 | 39 | 1011.5 |
| 20260905011814 | 78 | 227 | 0.0 | 0.0 | 0.00 | 0.00 | 0.06 | 38 | 1011.4 |
| 20260905010443 | 78 | 121 | 0.0 | 0.0 | 0.00 | 0.00 | 0.06 | 40 | 1011.3 |
| 20260905005929 | 78 | 123 | 0.0 | 0.0 | 0.00 | 0.00 | 0.06 | 39 | 1011.3 |
| 20260905005925 | 78 | 123 | 0.0 | 0.0 | 0.00 | 0.00 | 0.06 | 38 | 1011.3 |
| 20260905004235 | 78 | 238 | 2.0 | 5.0 | 0.00 | 0.00 | 0.06 | 40 | 1011.4 |
| 20260905003736 | 78 | 240 | 3.0 | 7.0 | 0.00 | 0.00 | 0.06 | 39 | 1011.5 |
| 20260905003235 | 78 | 215 | 2.0 | 7.0 | 0.00 | 0.00 | 0.06 | 39 | 1011.6 |
| 20260905002737 | 79 | 221 | 0.0 | 0.0 | 0.00 | 0.00 | 0.06 | 38 | 1011.6 |
| 20260905001727 | 80 | 221 | 2.0 | 5.0 | 0.00 | 0.00 | 0.06 | 38 | 1011.6 |
| 20260905000717 | 80 | 227 | 1.0 | 3.0 | 0.00 | 0.00 | 0.06 | 38 | 1011.6 |
| 20260904235300 | 80 | 181 | 2.0 | 5.0 | 0.00 | 0.00 | 0.06 | 37 | 1011.6 |
| 20260904234801 | 80 | 172 | 2.0 | 2.0 | 0.00 | 0.00 | 0.06 | 37 | 1011.8 |
| 20260904233419 | 80 | 231 | 3.0 | 3.0 | 0.00 | 0.00 | 0.06 | 37 | 1011.9 |
| 20260904232314 | 79 | 242 | 3.0 | 4.0 | 0.00 | 0.00 | 0.06 | 38 | 1011.9 |
| 20260904230941 | 79 | 180 | 2.0 | 7.0 | 0.00 | 0.00 | 0.06 | 38 | 1011.9 |
| 20260904230442 | 80 | 245 | 2.0 | 7.0 | 0.00 | 0.00 | 0.06 | 38 | 1012.0 |
| 20260904230435 | 79 | 243 | 1.0 | 7.0 | 0.00 | 0.00 | 0.06 | 39 | 1012.1 |
| 20260904225435 | 79 | 185 | 2.0 | 7.0 | 0.00 | 0.00 | 0.06 | 39 | 1012.1 |
| 20260904224918 | 79 | 242 | 2.0 | 6.0 | 0.00 | 0.00 | 0.06 | 39 | 1012.2 |
| 20260904224419 | 78 | 241 | 3.0 | 1.0 | 0.00 | 0.00 | 0.06 | 40 | 1012.3 |
| 20260904223038 | 79 | 240 | 2.0 | 1.0 | 0.00 | 0.00 | 0.06 | 41 | 1012.5 |
| 20260904221750 | 78 | 31 | 2.0 | 7.0 | 0.00 | 0.00 | 0.06 | 41 | 1012.3 |
| 20260904221745 | 79 | 246 | 3.0 | 7.0 | 0.00 | 0.00 | 0.06 | 41 | 1012.6 |
| 20260904221512 | 79 | 238 | 5.0 | 5.0 | 0.00 | 0.00 | 0.06 | 41 | 1012.6 |
| 20260904215842 | 79 | 248 | 3.0 | 2.0 | 0.00 | 0.00 | 0.06 | 42 | 1012.5 |
| 20260904213819 | 79 | 245 | 3.0 | 3.0 | 0.00 | 0.00 | 0.06 | 43 | 1012.5 |
| 20260904212519 | 78 | 257 | 2.0 | 2.0 | 0.00 | 0.00 | 0.06 | 44 | 1012.5 |
| 20260904211015 | 78 | 195 | 2.0 | 6.0 | 0.00 | 0.00 | 0.06 | 45 | 1012.7 |
| 20260904211011 | 78 | 169 | 2.0 | 6.0 | 0.00 | 0.00 | 0.06 | 43 | 1012.5 |
| 20260904210005 | 77 | 247 | 2.0 | 1.0 | 0.00 | 0.00 | 0.06 | 47 | 1012.5 |
| 20260904205209 | 77 | 266 | 1.0 | 9.0 | 0.00 | 0.00 | 0.06 | 47 | 1012.5 |
| 20260904204211 | 76 | 151 | 1.0 | 3.0 | 0.00 | 0.00 | 0.06 | 49 | 1012.7 |
| 20260904204207 | 76 | 195 | 0.0 | 3.0 | 0.00 | 0.00 | 0.06 | 49 | 1012.5 |
| 20260904203205 | 76 | 236 | 3.0 | 3.0 | 0.00 | 0.00 | 0.06 | 47 | 1012.6 |
| 20260904201741 | 76 | 157 | 1.0 | 0.0 | 0.00 | 0.00 | 0.06 | 48 | 1012.7 |
| 20260904200417 | 75 | 247 | 1.0 | 6.0 | 0.00 | 0.00 | 0.06 | 52 | 1012.5 |
| 20260904195915 | 74 | 182 | 0.0 | 1.0 | 0.00 | 0.00 | 0.06 | 52 | 1012.6 |
| 20260904195402 | 75 | 184 | 1.0 | 1.0 | 0.00 | 0.00 | 0.06 | 51 | 1012.6 |
| 20260904194133 | 75 | 215 | 1.0 | 3.0 | 0.00 | 0.00 | 0.06 | 54 | 1012.7 |
| 20260904192715 | 74 | 236 | 2.0 | 8.0 | 0.00 | 0.00 | 0.06 | 52 | 1012.9 |
| 20260904192211 | 74 | 238 | 1.0 | 3.0 | 0.00 | 0.00 | 0.06 | 53 | 1013.0 |
| 20260904190639 | 73 | 224 | 1.0 | 0.0 | 0.00 | 0.00 | 0.06 | 55 | 1013.0 |
| 20260904185246 | 72 | 147 | 2.0 | 0.0 | 0.00 | 0.00 | 0.06 | 55 | 1013.0 |
| 20260904183933 | 72 | 142 | 1.0 | 3.0 | 0.00 | 0.00 | 0.06 | 56 | 1013.0 |
| 20260904183111 | 71 | 171 | 1.0 | 0.0 | 0.00 | 0.00 | 0.06 | 57 | 1013.0 |
| 20260904181617 | 72 | 215 | 1.0 | 6.0 | 0.00 | 0.00 | 0.06 | 58 | 1013.0 |
| 20260904181354 | 71 | 203 | 1.0 | 0.0 | 0.00 | 0.00 | 0.06 | 62 | 1013.0 |
| 20260904175118 | 70 | 142 | 1.0 | 5.0 | 0.00 | 0.00 | 0.06 | 63 | 1013.1 |
| 20260904174618 | 70 | 189 | 1.0 | 1.0 | 0.00 | 0.00 | 0.06 | 65 | 1013.1 |
| 20260904173330 | 69 | 126 | 2.0 | 1.0 | 0.00 | 0.00 | 0.06 | 64 | 1012.9 |
| 20260904172159 | 69 | 119 | 1.0 | 4.0 | 0.00 | 0.00 | 0.06 | 69 | 1012.9 |
| 20260904171659 | 69 | 196 | 1.0 | 6.0 | 0.00 | 0.00 | 0.06 | 70 | 1012.9 |
| 20260904171157 | 69 | 187 | 2.0 | 6.0 | 0.00 | 0.00 | 0.06 | 71 | 1012.7 |
| 20260904170704 | 69 | 178 | 2.0 | 2.0 | 0.00 | 0.00 | 0.06 | 71 | 1012.8 |
| 20260904165155 | 66 | 227 | 1.0 | 6.0 | 0.00 | 0.00 | 0.06 | 73 | 1012.6 |
| 20260904164651 | 67 | 146 | 1.0 | 1.0 | 0.00 | 0.00 | 0.06 | 74 | 1012.5 |
| 20260904163451 | 66 | 144 | 2.0 | 3.0 | 0.00 | 0.00 | 0.06 | 76 | 1012.3 |
| 20260904162316 | 66 | 220 | 1.0 | 3.0 | 0.00 | 0.00 | 0.06 | 78 | 1012.1 |
| 20260904161033 | 64 | 192 | 0.0 | 5.0 | 0.00 | 0.00 | 0.06 | 83 | 1012.1 |
| 20260904160536 | 64 | 192 | 1.0 | 6.0 | 0.00 | 0.00 | 0.06 | 86 | 1012.1 |
| 20260904160035 | 62 | 229 | 1.0 | 6.0 | 0.00 | 0.00 | 0.06 | 88 | 1012.0 |
| 20260904155533 | 61 | 189 | 0.0 | 6.0 | 0.00 | 0.00 | 0.06 | 89 | 1012.0 |
| 20260904155037 | 60 | 207 | 1.0 | 5.0 | 0.00 | 0.00 | 0.06 | 90 | 1011.8 |
| 20260904155032 | 60 | 167 | 1.0 | 5.0 | 0.00 | 0.00 | 0.06 | 90 | 1011.8 |
| 20260904154022 | 60 | 217 | 1.0 | 5.0 | 0.00 | 0.00 | 0.06 | 90 | 1011.8 |
| 20260904153524 | 60 | 160 | 1.0 | 0.0 | 0.00 | 0.00 | 0.06 | 90 | 1011.8 |
| 20260904152255 | 60 | 184 | 1.0 | 3.0 | 0.00 | 0.00 | 0.06 | 90 | 1011.7 |
| 20260904151757 | 60 | 176 | 1.0 | 3.0 | 0.00 | 0.00 | 0.06 | 90 | 1011.7 |
| 20260904151244 | 59 | 179 | 0.0 | 3.0 | 0.00 | 0.00 | 0.06 | 90 | 1011.8 |
| 20260904150745 | 59 | 190 | 1.0 | 0.0 | 0.00 | 0.00 | 0.06 | 90 | 1011.6 |
| 20260904145855 | 59 | 225 | 1.0 | 3.0 | 0.00 | 0.00 | 0.06 | 90 | 1011.6 |
| 20260904145613 | 59 | 231 | 1.0 | 0.0 | 0.00 | 0.00 | 0.06 | 90 | 1011.5 |
| 20260904143657 | 59 | 238 | 2.0 | 6.0 | 0.00 | 0.00 | 0.06 | 90 | 1011.2 |
| 20260904143653 | 59 | 232 | 1.0 | 6.0 | 0.00 | 0.00 | 0.06 | 90 | 1011.2 |
| 20260904142654 | 59 | 224 | 3.0 | 6.0 | 0.00 | 0.00 | 0.06 | 90 | 1011.2 |
| 20260904142154 | 59 | 236 | 3.0 | 5.0 | 0.00 | 0.00 | 0.06 | 90 | 1011.1 |
| 20260904141106 | 59 | 229 | 1.0 | 3.0 | 0.00 | 0.00 | 0.06 | 90 | 1011.1 |
| 20260904140605 | 59 | 229 | 1.0 | 1.0 | 0.00 | 0.00 | 0.06 | 90 | 1011.0 |
| 20260904135111 | 59 | 244 | 0.0 | 3.0 | 0.00 | 0.00 | 0.06 | 90 | 1010.8 |
| 20260904134555 | 59 | 221 | 0.0 | 2.0 | 0.00 | 0.00 | 0.06 | 90 | 1010.8 |
| 20260904134051 | 59 | 229 | 0.0 | 0.0 | 0.00 | 0.00 | 0.06 | 90 | 1010.6 |
| 20260904132612 | 59 | 189 | 1.0 | 2.0 | 0.00 | 0.00 | 0.06 | 90 | 1010.5 |
| 20260904132059 | 60 | 207 | 1.0 | 0.0 | 0.00 | 0.00 | 0.06 | 90 | 1010.5 |
| 20260904130613 | 60 | 215 | 1.0 | 0.0 | 0.00 | 0.00 | 0.06 | 90 | 1010.5 |
| 20260904130235 | 60 | 213 | 0.0 | 3.0 | 0.00 | 0.00 | 0.06 | 90 | 1010.6 |
| 20260904125524 | 60 | 215 | 1.0 | 3.0 | 0.00 | 0.00 | 0.06 | 90 | 1010.5 |
| 20260904124017 | 60 | 229 | 0.0 | 1.0 | 0.00 | 0.00 | 0.04 | 90 | 1010.5 |
| 20260904122626 | 60 | 188 | 1.0 | 0.0 | 0.00 | 0.00 | 0.04 | 90 | 1010.2 |
| 20260904122621 | 60 | 210 | 1.0 | 3.0 | 0.00 | 0.00 | 0.04 | 90 | 1010.4 |
| 20260904120744 | 60 | 200 | 0.0 | 1.0 | 0.00 | 0.00 | 0.04 | 90 | 1010.2 |
| 20260904115355 | 60 | 213 | 1.0 | 3.0 | 0.00 | 0.00 | 0.04 | 90 | 1010.1 |
| 20260904114853 | 60 | 207 | 0.0 | 2.0 | 0.00 | 0.00 | 0.04 | 90 | 1010.2 |
| 20260904114353 | 60 | 217 | 0.0 | 3.0 | 0.00 | 0.00 | 0.04 | 90 | 1010.2 |
| 20260904113849 | 60 | 188 | 0.0 | 4.0 | 0.00 | 0.00 | 0.04 | 90 | 1010.1 |
| 20260904113345 | 60 | 183 | 0.0 | 4.0 | 0.00 | 0.00 | 0.04 | 90 | 1010.2 |
| 20260904112839 | 60 | 190 | 0.0 | 0.0 | 0.00 | 0.00 | 0.04 | 90 | 1010.1 |
| 20260904111754 | 60 | 232 | 0.0 | 1.0 | 0.00 | 0.00 | 0.04 | 90 | 1010.1 |
| 20260904110625 | 61 | 236 | 0.0 | 3.0 | 0.00 | 0.00 | 0.04 | 90 | 1010.1 |
| 20260904110124 | 61 | 246 | 0.0 | 3.0 | 0.00 | 0.00 | 0.04 | 90 | 1010.1 |
| 20260904105626 | 61 | 201 | 0.0 | 2.0 | 0.00 | 0.00 | 0.04 | 89 | 1010.1 |
| 20260904105123 | 61 | 201 | 0.0 | 1.0 | 0.00 | 0.00 | 0.04 | 89 | 1010.1 |
| 20260904105118 | 61 | 202 | 1.0 | 1.0 | 0.00 | 0.00 | 0.04 | 89 | 1010.1 |
| 20260904103414 | 61 | 231 | 0.0 | 3.0 | 0.00 | 0.00 | 0.04 | 90 | 1009.9 |
| 20260904102907 | 61 | 248 | 1.0 | 4.0 | 0.00 | 0.00 | 0.04 | 90 | 1009.9 |
| 20260904102901 | 61 | 234 | 1.0 | 3.0 | 0.00 | 0.00 | 0.04 | 90 | 1009.8 |
| 20260904101855 | 61 | 236 | 1.0 | 4.0 | 0.00 | 0.00 | 0.04 | 89 | 1009.8 |
| 20260904101359 | 62 | 183 | 0.0 | 3.0 | 0.00 | 0.00 | 0.04 | 89 | 1009.8 |
| 20260904100244 | 62 | 248 | 1.0 | 5.0 | 0.00 | 0.00 | 0.04 | 89 | 1009.7 |
| 20260904095741 | 62 | 240 | 1.0 | 4.0 | 0.00 | 0.00 | 0.04 | 89 | 1009.7 |
| 20260904095734 | 62 | 227 | 1.0 | 4.0 | 0.00 | 0.00 | 0.04 | 89 | 1009.6 |
| 20260904094732 | 62 | 237 | 1.0 | 3.0 | 0.00 | 0.00 | 0.04 | 89 | 1009.7 |
| 20260904094237 | 62 | 238 | 1.0 | 4.0 | 0.00 | 0.00 | 0.04 | 89 | 1009.6 |
| 20260904094231 | 62 | 230 | 1.0 | 4.0 | 0.00 | 0.00 | 0.04 | 89 | 1009.7 |
| 20260904093232 | 62 | 238 | 1.0 | 0.0 | 0.00 | 0.00 | 0.03 | 89 | 1009.5 |
| 20260904093227 | 62 | 234 | 1.0 | 3.0 | 0.00 | 0.00 | 0.04 | 89 | 1009.5 |
| 20260904091155 | 62 | 232 | 0.0 | 2.0 | 0.00 | 0.00 | 0.03 | 89 | 1009.6 |
| 20260904090653 | 62 | 216 | 0.0 | 2.0 | 0.00 | 0.00 | 0.03 | 89 | 1009.6 |
| 20260904090138 | 62 | 218 | 1.0 | 2.0 | 0.00 | 0.00 | 0.03 | 89 | 1009.6 |
| 20260904084737 | 62 | 194 | 0.0 | 3.0 | 0.01 | 0.01 | 0.03 | 89 | 1009.7 |
| 20260904084237 | 62 | 189 | 0.0 | 0.0 | 0.01 | 0.01 | 0.03 | 89 | 1009.8 |
| 20260904083721 | 62 | 198 | 0.0 | 0.0 | 0.00 | 0.00 | 0.02 | 89 | 1009.8 |
| 20260904082253 | 62 | 200 | 0.0 | 0.0 | 0.00 | 0.00 | 0.02 | 89 | 1009.9 |
| 20260904081112 | 62 | 207 | 0.0 | 0.0 | 0.00 | 0.00 | 0.02 | 89 | 1009.9 |
| 20260904080612 | 62 | 209 | 0.0 | 0.0 | 0.00 | 0.00 | 0.01 | 89 | 1009.9 |
| 20260904075345 | 63 | 194 | 0.0 | 1.0 | 0.00 | 0.00 | 0.00 | 89 | 1009.8 |
| 20260904073825 | 63 | 207 | 0.0 | 0.0 | 0.00 | 0.00 | 0.00 | 89 | 1009.8 |
| 20260904072551 | 63 | 195 | 0.0 | 3.0 | 0.00 | 0.00 | 0.00 | 89 | 1009.9 |
| 20260904072051 | 63 | 180 | 0.0 | 2.0 | 0.00 | 0.00 | 0.00 | 89 | 1009.9 |
| 20260904071551 | 63 | 173 | 0.0 | 2.0 | 0.00 | 0.00 | 0.00 | 88 | 1009.9 |
| 20260904071051 | 63 | 149 | 0.0 | 2.0 | 0.00 | 0.00 | 0.00 | 88 | 1009.8 |
| 20260904070548 | 63 | 58 | 0.0 | 1.0 | 0.00 | 0.00 | 0.00 | 89 | 1009.8 |
| 20260904070013 | 63 | 55 | 0.0 | 0.0 | 0.00 | 0.00 | 0.00 | 89 | 1009.9 |
| 20260904065054 | 63 | 51 | 0.0 | 0.0 | 0.00 | 0.00 | 0.04 | 89 | 1010.1 |
| 20260904064051 | 63 | 51 | 0.0 | 0.0 | 0.00 | 0.00 | 0.04 | 89 | 1010.0 |
| 20260904064028 | 63 | 51 | 0.0 | 0.0 | 0.00 | 0.00 | 0.04 | 89 | 1009.9 |